Showing default

ORBCOMM FM 39, 33063

Orbit data source: Space-Track

ORBCOMM FM 39, 33063 is a payload satellite owned by Orbcomm (US) in LEO that was launched on Thu, 19 Jun 2008 UTC via a KOSMOS 11K65M launch vehicle from the Kapustin Yar Missile And Space Complex (KYMTR). Payload-class satellites include a variety of spacecraft equipped with specific instruments for various scientific and technological missions. These include communications satellites like Starlink; space stations such as the ISS; scientific satellites like the Hubble; Earth observation satellites from companies like Planet Labs, Umbra, and HawkEye 360; GPS; miniature CubeSats for education and research; and military/defense satellites.

Loading next visibility...
Identifier
33063, 2008-031D
Orbit
LEO
Country
Flag of USUS / ORB
Related business
Manufacturer
OHB/POLK
Mission
Non-operational Commercial Communications
Bus & Motor
STERKH, Unknown motor
Mass
115 kg wet, 115 kg dry
Launch date (UTC)
2008-06-19 (18 years ago)
Launch vehicle
KOSMOS 11K65M
Launch site
Kapustin Yar Missile And Space Complex (KYMTR)
Object type
Payload
Rocket body
Debris
Shape & HBR
Box + 1 Ant, 0.8 m
Radar Cross Section
2.947 m², Large (>1 m²)

Expand to show TLE details & history
Last TLE update: 1 day ago

TLE from 1 day ago
0 ORBCOMM FM 39
1 33063U 08031D   26167.98013753  .00001027  00000-0  15819-3 0  9992
2 33063  48.4410  59.2302 0006044 125.7085 234.4394 14.81124853967841
Epoch: 2026-06-16T23:31Z
TLE epoch observation values (Epoch: 2026-06-16T23:31:23.882Z)
Latitude
0.00001°
Longitude
161.13631°
Altitude
628.614 km
Speed
7.544 km/s
True Right ascension
03h 56m 55s
True Declination
0° 00' 00"
Sunlit
Object was in daylight at epoch
Visualization orbit readout
Latitude
Unknown
Longitude
Unknown
Altitude
Unknown
Speed
Unknown
Apparent Right ascension
Unknown
Apparent Declination
Unknown
Sunlit
N/A
Visualization observer readout
Local Sidereal Time
13:07:09
Azimuth
Unknown
Elevation
Unknown
Doppler factor
Unknown
Orbital elements
Apogee altitude
631.021 km
Perigee altitude
622.553 km
Semi-major axis
7,004.924 km
Eccentricity
0.0006
Inclination
48.441°
RAAN
59.2302°
Arg. of periapsis
125.7085°
True anomaly
234.38308°
Mean anomaly
234.4394°
Eccentric anomaly
234.41124°
Mean motion
3.70201 °/min
Orbital period
97.24 mins
BSTAR
0.00015819
Loading maneuver chart data...
Computing Atmospheric mass density...
Loading historical data...
Loading historical data...
Loading historical data...
Loading historical data...
Loading historical data...
Loading historical data...
Loading historical data...

Documentation

Showing up to 5 results
|